"2019/01/01", 5.6, 6.0, 5.0
"2019/01/02", 5.4, 6.1, 4.7
"2019/01/03", 5.5, 6.3, 4.8
"2019/01/04"," *"," *"," *"
"2019/01/05"," *"," *"," *"
"2019/01/06"," *"," *"," *"
"2019/01/07"," *"," *"," *"
"2019/01/08", 5.6, 6.3, 4.9
"2019/01/09", 5.4, 5.8, 4.9
"2019/01/10", 5.1, 5.4, 4.8
"2019/01/11", 5.0, 5.7, 4.5
"2019/01/12"," *"," *"," *"
"2019/01/13"," *"," *"," *"
"2019/01/14"," *"," *"," *"
"2019/01/15"," *"," *"," *"
"2019/01/16", 5.4, 6.0, 4.9
"2019/01/17", 5.5, 5.9, 5.2
"2019/01/18", 4.9, 5.5, 4.3
"2019/01/19", 5.0, 5.8, 4.2
"2019/01/20", 5.2, 6.0, 4.4
"2019/01/21", 5.1, 5.7, 4.4
"2019/01/22", 5.1, 6.1, 4.3
"2019/01/23", 5.2, 5.9, 4.6
"2019/01/24", 5.1, 5.8, 4.5
"2019/01/25", 4.9, 5.9, 3.9
"2019/01/26", 4.8, 5.2, 4.3
"2019/01/27", 4.2, 5.2, 3.3
"2019/01/28", 4.5, 5.1, 4.1
"2019/01/29", 4.4, 5.2, 3.6
"2019/01/30", 4.7, 5.3, 3.8
"2019/01/31", 4.9, 5.2, 4.7
"2019/02/01", 4.9, 6.0, 4.4
"2019/02/02", 4.8, 5.7, 4.2
"2019/02/03", 5.4, 6.2, 4.8
"2019/02/04", 7.2, 8.6, 5.4
"2019/02/05", 6.6, 7.4, 6.1
"2019/02/06", 6.3, 6.5, 6.0
"2019/02/07", 6.3, 7.0, 5.7
"2019/02/08", 6.1, 6.6, 5.5
"2019/02/09", 4.6, 5.5, 3.8
"2019/02/10", 4.5, 5.4, 3.4
"2019/02/11", 4.3, 4.9, 3.9
"2019/02/12", 4.6, 5.3, 3.5
"2019/02/13", 4.7, 5.1, 4.4
"2019/02/14", 4.7, 5.2, 3.9
"2019/02/15", 4.2, 4.7, 3.8
"2019/02/16", 4.6, 5.3, 3.8
"2019/02/17", 5.1, 5.8, 4.4
"2019/02/18", 5.7, 6.8, 4.8
"2019/02/19", 5.8, 6.3, 5.3
"2019/02/20", 6.6, 7.6, 5.6
"2019/02/21", 8.0, 9.5, 6.5
"2019/02/22"," *"," *"," *"
"2019/02/23"," *"," *"," *"
"2019/02/24"," *"," *"," *"
"2019/02/25"," *"," *"," *"
"2019/02/26", 8.8, 9.0, 8.4
"2019/02/27", 8.2, 8.4, 7.7
"2019/02/28", 8.1, 8.3, 8.0
"2019/03/01", 8.5, 9.6, 7.8
"2019/03/02", 8.7,10.4, 7.5
"2019/03/03", 8.3, 9.0, 7.9
"2019/03/04", 8.2, 8.6, 7.8
"2019/03/05", 8.4, 9.3, 7.3
"2019/03/06", 8.9, 9.6, 8.5
"2019/03/07", 8.9, 9.3, 8.4
"2019/03/08", 9.0,10.0, 8.1
"2019/03/09", 9.6,11.1, 8.7
"2019/03/10",10.1,11.0, 9.1
"2019/03/11",10.7,11.6,10.1
"2019/03/12",10.9,12.4, 9.5
"2019/03/13",11.1,12.0,10.5
"2019/03/14",10.8,11.7,10.0
"2019/03/15",10.6,12.3, 9.6
"2019/03/16",10.4,11.0,10.0
"2019/03/17",10.6,11.8, 9.6
"2019/03/18",10.7,11.8, 9.4
"2019/03/19",10.9,12.0,10.3
"2019/03/20",12.3,14.3,10.9
"2019/03/21",12.4,14.5,10.6
"2019/03/22",13.2,14.4,12.5
"2019/03/23",11.8,12.7,11.1
"2019/03/24",11.3,12.5,10.2
"2019/03/25",11.3,12.5, 9.7
"2019/03/26",11.7,12.2,11.3
"2019/03/27",11.7,12.3,10.9
"2019/03/28",11.6,12.1,11.0
"2019/03/29",10.7,11.2,10.1
"2019/03/30",10.3,10.7, 9.5
"2019/03/31",10.9,11.8, 9.9
"2019/04/01",11.4,12.6,10.3
"2019/04/02",11.5,12.8,10.6
"2019/04/03",11.6,13.0,10.4
"2019/04/04",11.3,12.4,10.8
"2019/04/05",11.7,13.1,10.6
"2019/04/06",12.6,14.5,11.5
"2019/04/07",13.6,15.0,12.6
"2019/04/08",12.4,13.9,11.6
"2019/04/09",12.4,13.8,11.0
"2019/04/10",11.8,12.5,10.3
"2019/04/11",11.2,12.5,10.0
"2019/04/12"," *"," *"," *"
"2019/04/13"," *"," *"," *"
"2019/04/14"," *"," *"," *"
"2019/04/15"," *"," *"," *"
"2019/04/16"," *"," *"," *"
"2019/04/17",14.3,15.1,13.7
"2019/04/18",15.0,17.2,13.9
"2019/04/19",16.0,17.8,14.5
"2019/04/20",15.5,16.9,14.2
"2019/04/21",15.9,16.9,15.0
"2019/04/22",16.7,18.7,15.6
"2019/04/23",17.0,18.4,15.9
"2019/04/24",17.5,18.4,16.5
"2019/04/25",18.0,18.7,17.2
"2019/04/26",15.9,17.4,14.7
"2019/04/27",14.7,15.2,14.0
"2019/04/28",15.7,18.8,14.1
"2019/04/29",15.7,16.3,15.0
"2019/04/30",16.0,16.4,15.7
"2019/05/01",16.8,18.7,15.7
"2019/05/02",17.2,18.1,16.5
"2019/05/03",18.0,19.9,16.9
"2019/05/04",18.0,19.1,17.2
"2019/05/05",19.1,21.5,17.7
"2019/05/06",19.1,20.2,18.5
"2019/05/07",18.6,19.2,17.9
"2019/05/08",18.2,18.6,17.7
"2019/05/09",18.2,18.6,17.9
"2019/05/10",19.0,21.3,17.4
"2019/05/11",19.7,21.4,18.6
"2019/05/12",18.8,19.5,18.0
"2019/05/13",18.5,19.4,17.5
"2019/05/14",19.0,19.5,18.7
"2019/05/15",19.5,20.1,19.0
"2019/05/16",20.5,23.3,18.9
"2019/05/17",20.8,22.2,19.5
"2019/05/18",20.9,21.7,20.1
"2019/05/19",21.3,22.4,20.4
"2019/05/20",21.5,22.4,20.8
"2019/05/21",20.7,21.3,20.0
"2019/05/22",20.5,21.5,19.3
"2019/05/23",21.3,22.6,19.9
"2019/05/24",22.6,24.8,20.8
"2019/05/25",23.1,25.5,21.3
"2019/05/26",23.0,26.1,21.2
"2019/05/27",23.6,26.5,21.6
"2019/05/28",22.3,23.0,21.8
"2019/05/29",21.9,22.5,21.2
"2019/05/30",22.9,24.8,21.3
"2019/05/31",22.3,22.9,21.9
"2019/06/01",22.2,22.9,21.5
"2019/06/02",22.5,24.2,21.5
"2019/06/03",22.8,23.9,21.9
"2019/06/04",23.2,25.4,22.4
"2019/06/05",22.9,23.2,22.6
"2019/06/06",24.2,27.6,22.7
"2019/06/07",23.1,23.8,22.3
"2019/06/08",22.4,22.7,21.7
"2019/06/09",21.3,21.8,20.6
"2019/06/10",20.1,20.8,19.4
"2019/06/11",20.1,21.2,19.0
"2019/06/12",19.9,20.6,19.5
"2019/06/13",20.8,22.5,19.5
"2019/06/14",21.1,21.9,20.6
"2019/06/15",20.6,21.2,20.1
"2019/06/16",21.0,21.9,20.1
"2019/06/17",22.8,26.6,20.5
"2019/06/18",22.3,23.0,21.5
"2019/06/19",23.1,26.3,22.0
"2019/06/20",22.8,24.3,21.6
"2019/06/21",23.4,23.9,23.1
"2019/06/22",23.5,24.0,23.1
"2019/06/23",23.0,23.3,22.4
"2019/06/24",22.1,22.4,21.6
"2019/06/25",22.7,24.9,21.6
"2019/06/26",23.1,24.3,22.7
"2019/06/27",23.6,24.3,23.1
"2019/06/28",24.2,25.1,23.6
"2019/06/29",23.2,23.8,22.9
"2019/06/30",22.9,23.1,22.5
"2019/07/01",23.0,23.2,22.6
"2019/07/02",23.2,23.8,22.9
"2019/07/03",23.6,24.4,22.9
"2019/07/04",23.7,24.0,23.1
"2019/07/05",23.3,23.7,22.6
"2019/07/06",23.0,23.3,22.4
"2019/07/07",22.1,22.7,21.3
"2019/07/08",21.8,22.7,20.7
"2019/07/09",21.7,22.1,21.3
"2019/07/10",21.8,22.7,21.0
"2019/07/11",22.0,23.2,21.0
"2019/07/12",22.0,22.4,21.8
"2019/07/13",23.3,25.5,21.8
"2019/07/14",22.5,23.0,22.2
"2019/07/15",22.4,23.0,22.0
"2019/07/16",22.1,22.4,21.8
"2019/07/17",23.1,24.6,22.0
"2019/07/18",23.4,24.8,22.8
"2019/07/19",22.9,23.5,22.6
"2019/07/20",25.5,27.9,23.3
"2019/07/21",24.9,26.0,24.0
"2019/07/22",23.8,24.0,23.6
"2019/07/23",24.5,25.6,23.6
"2019/07/24",26.2,28.3,24.7
"2019/07/25",27.0,29.1,25.6
"2019/07/26",26.0,27.3,25.1
"2019/07/27",26.5,27.2,26.0
"2019/07/28",26.5,27.0,26.3
"2019/07/29",27.9,31.1,26.3
"2019/07/30",27.4,29.9,26.7
"2019/07/31",29.1,32.1,26.8
"2019/08/01",29.5,31.6,28.4
"2019/08/02",29.4,32.6,27.8
"2019/08/03",29.2,30.3,28.4
"2019/08/04",30.0,31.3,29.0
"2019/08/05",30.3,31.5,29.3
"2019/08/06",30.1,30.6,29.5
"2019/08/07",31.0,33.4,29.9
"2019/08/08",30.3,30.8,29.8
"2019/08/09",30.5,32.6,29.6
"2019/08/10",31.2,32.9,30.2
"2019/08/11",30.6,31.1,29.7
"2019/08/12",30.3,31.7,29.3
"2019/08/13",30.6,31.9,29.7
"2019/08/14",30.4,31.0,30.0
"2019/08/15",30.3,31.1,29.7
"2019/08/16",29.0,29.8,28.2
"2019/08/17",28.8,29.6,27.8
"2019/08/18",29.6,30.5,28.5
"2019/08/19",29.0,29.5,28.4
"2019/08/20",28.5,28.8,27.9
"2019/08/21",28.7,29.8,27.6
"2019/08/22",28.4,29.4,27.6
"2019/08/23",28.1,28.4,27.7
"2019/08/24",28.6,30.0,27.5
"2019/08/25",28.3,29.9,26.8
"2019/08/26",27.6,28.2,26.9
"2019/08/27",27.6,28.6,26.6
"2019/08/28",27.3,27.5,27.0
"2019/08/29",27.5,28.7,26.8
"2019/08/30",27.2,27.6,27.0
"2019/08/31",27.7,28.8,26.8
"2019/09/01",28.4,29.6,27.4
"2019/09/02",28.8,30.1,27.8
"2019/09/03",27.6,28.3,26.9
"2019/09/04",26.6,27.1,26.0
"2019/09/05",27.4,29.0,26.0
"2019/09/06",28.1,29.6,27.1
"2019/09/07",28.3,29.7,27.3
"2019/09/08",28.5,29.3,27.7
"2019/09/09",27.4,28.3,26.9
"2019/09/10",28.3,30.4,27.2
"2019/09/11",28.9,30.5,28.0
"2019/09/12",27.9,28.6,27.1
"2019/09/13",26.3,27.1,24.9
"2019/09/14",25.5,26.1,24.6
"2019/09/15",25.9,26.9,24.8
"2019/09/16",25.4,25.9,25.0
"2019/09/17",25.9,27.0,25.0
"2019/09/18",25.0,25.7,24.3
"2019/09/19",24.7,25.5,23.9
"2019/09/20",24.9,26.9,23.3
"2019/09/21",24.1,24.8,23.8
"2019/09/22",23.8,24.7,22.8
"2019/09/23",24.7,25.9,23.5
"2019/09/24",25.2,25.9,24.6
"2019/09/25",25.2,26.5,24.3
"2019/09/26",24.7,25.5,23.9
"2019/09/27",24.8,26.6,23.7
"2019/09/28",24.7,25.1,24.4
"2019/09/29",24.7,24.9,24.5
"2019/09/30",25.0,25.7,24.2
"2019/10/01",25.3,26.9,24.1
"2019/10/02",25.5,27.1,24.7
"2019/10/03",25.0,25.5,24.5
"2019/10/04",24.9,25.4,24.3
"2019/10/05",25.0,26.7,24.1
"2019/10/06",23.7,24.7,22.7
"2019/10/07",22.4,22.9,21.5
"2019/10/08",22.6,23.1,22.1
"2019/10/09",23.3,25.5,22.0
"2019/10/10",22.3,22.8,21.4
"2019/10/11"," *"," *"," *"
"2019/10/12",22.2,22.5,21.9
"2019/10/13",22.6,23.7,21.9
"2019/10/14",21.4,22.3,20.6
"2019/10/15",20.8,21.1,20.2
"2019/10/16",20.1,20.4,19.6
"2019/10/17",20.2,21.0,19.4
"2019/10/18",19.9,20.4,19.4
"2019/10/19",19.2,19.6,18.7
"2019/10/20",19.8,20.2,19.4
"2019/10/21",19.6,19.9,19.2
"2019/10/22",18.3,19.3,17.7
"2019/10/23",19.0,21.3,17.4
"2019/10/24",19.3,19.6,18.6
"2019/10/25",18.1,19.2,17.7
"2019/10/26",17.9,19.3,17.3
"2019/10/27",18.4,18.8,18.1
"2019/10/28",18.3,18.7,18.0
"2019/10/29",17.7,18.1,17.3
"2019/10/30",18.0,19.3,17.3
"2019/10/31",18.4,19.3,17.8
"2019/11/01",18.5,19.2,17.7
"2019/11/02",18.2,19.0,17.3
"2019/11/03",18.0,18.5,17.4
"2019/11/04",17.7,18.6,17.0
"2019/11/05",17.4,18.5,16.6
"2019/11/06",17.3,18.0,16.6
"2019/11/07",17.0,17.4,16.6
"2019/11/08",16.6,17.4,15.9
"2019/11/09",16.3,17.8,15.1
"2019/11/10",16.3,17.8,15.2
"2019/11/11",16.1,16.5,15.7
"2019/11/12",16.1,16.8,15.3
"2019/11/13",15.8,16.3,15.2
"2019/11/14",16.0,16.7,15.6
"2019/11/15",15.6,16.2,14.9
"2019/11/16",15.4,16.2,14.5
"2019/11/17",15.4,16.2,14.7
"2019/11/18",15.2,15.5,14.9
"2019/11/19",15.8,17.7,15.2
"2019/11/20",14.6,15.9,13.6
"2019/11/21",14.1,15.1,13.2
"2019/11/22",13.1,13.9,12.4
"2019/11/23",13.3,13.7,12.5
"2019/11/24",13.9,14.3,13.4
"2019/11/25",14.1,14.8,13.7
"2019/11/26",13.0,13.7,12.1
"2019/11/27",12.2,12.5,11.7
"2019/11/28",11.9,12.5,10.5
"2019/11/29",10.7,12.1, 9.4
"2019/11/30",11.4,12.6,10.4
"2019/12/01",11.1,11.5,10.8
"2019/12/02",10.9,11.1,10.6
"2019/12/03",11.3,11.9,10.9
"2019/12/04",11.0,11.5,10.6
"2019/12/05",10.7,11.1,10.3
"2019/12/06", 9.8,10.3, 9.3
"2019/12/07", 9.2, 9.6, 8.4
"2019/12/08", 9.7,10.9, 8.4
"2019/12/09", 9.4,10.4, 8.8
"2019/12/10", 9.4, 9.9, 8.8
"2019/12/11",10.3,10.8, 9.8
"2019/12/12",10.4,11.2,10.0
"2019/12/13", 9.5,10.2, 8.9
"2019/12/14", 9.2, 9.6, 8.9
"2019/12/15", 9.0, 9.8, 8.4
"2019/12/16", 8.9, 9.8, 7.8
"2019/12/17", 9.3, 9.5, 9.0
"2019/12/18", 9.5, 9.9, 9.1
"2019/12/19", 9.2, 9.7, 8.9
"2019/12/20", 9.4,10.2, 8.7
"2019/12/21", 8.9, 9.4, 8.5
"2019/12/22", 8.4, 8.7, 8.1
"2019/12/23", 8.4, 9.0, 7.7
"2019/12/24", 8.5, 8.9, 8.0
"2019/12/25", 7.8, 8.1, 7.5
"2019/12/26", 7.8, 8.0, 7.3
"2019/12/27", 8.4, 9.0, 8.0
"2019/12/28", 7.9, 8.3, 7.6
"2019/12/29", 8.1, 9.8, 6.9
"2019/12/30", 8.2, 8.8, 7.8
"2019/12/31", 8.2, 9.3, 7.8
